Date/Time,Elv,Speed,Gids,SOC,Pack T1 C,Pack T2 C,Pack T4 C,Odo(km),QC,L1/L2,TP-FL,TP-FR,TP-RR,TP-RL,Ambient,SOH,RegenWh,Motor Pwr(w),Aux Pwr(100w),A/C Pwr(250w),Est Pwr A/C(50w),Motor Temp,Torque Nm
2018/05/31 14:25:31,309,0,0,306001,35.2,34.8,32,0,9,58,0,0,0,0,30.5,98.87,-5779,0,0,0,0,40,0
2018/05/31 14:25:49,308,0,154,306073,36.6,37.2,35.4,0,9,58,0,0,0,0,30.5,98.79,-5779,0,0,0,0,93,0
2018/05/31 14:25:54,308,0,154,306073,36.6,37.3,35.4,0,9,58,0,0,0,0,30.5,98.79,-5779,0,0,0,0,93,0
2018/05/31 14:25:58,308,0,154,306073,36.6,37.2,35.4,0,9,58,0,0,0,0,30.5,98.79,-5779,0,0,0,0,93,0
2018/05/31 14:26:03,308,0,154,306080,36.6,37.3,35.4,0,9,58,0,0,0,0,30.5,98.79,-5779,0,1,0,0,93,0
2018/05/31 14:26:08,308,0,154,306812,36.6,37.2,35.4,0,10,58,0,0,0,0,30.5,98.79,-5809,0,1,0,0,93,0
2018/05/31 14:26:14,308,0,155,307894,36.6,37.2,35.4,0,10,58,0,0,0,0,30.5,98.79,-5853,0,1,0,0,92,0
2018/05/31 14:26:19,308,0,155,308997,36.6,37.2,35.4,0,10,58,0,0,0,0,30.5,98.79,-5899,0,1,0,0,92,0
2018/05/31 14:26:24,307,0,156,310058,36.6,37.2,35.4,0,10,58,0,0,0,0,30.5,98.79,-5942,0,1,0,0,92,0
2018/05/31 14:26:29,307,0,157,311163,36.6,37.2,35.4,0,10,58,0,0,0,0,30.5,98.79,-5988,0,1,0,0,92,0
2018/05/31 14:26:34,308,0,157,312227,36.6,37.3,35.6,0,10,58,0,0,0,0,30.5,98.79,-6031,0,1,0,0,91,0
2018/05/31 14:26:39,308,0,158,313313,36.8,37.3,35.6,0,10,58,0,0,0,0,30.5,98.79,-6076,0,1,0,0,91,0
2018/05/31 14:26:44,308,0,158,314377,36.8,37.4,35.6,0,10,58,0,0,0,0,30.5,98.79,-6119,0,1,0,0,91,0
2018/05/31 14:27:15,308,0,161,320943,37.1,37.8,35.9,0,10,58,0,0,0,0,31,98.79,-6119,0,1,0,0,90,0
2018/05/31 14:27:20,307,0,162,322013,37,37.8,35.9,0,10,58,0,0,0,0,31,98.79,-6163,0,1,0,0,90,0
2018/05/31 14:27:26,307,0,163,323063,37.1,37.8,35.9,0,10,58,0,0,0,0,31,98.79,-6207,0,1,0,0,89,0
2018/05/31 14:27:32,307,0,163,324143,37.2,37.9,36,3819,10,58,0,0,0,0,31,98.79,-6251,0,1,1,0,89,0
2018/05/31 14:27:38,307,0,164,325421,37.2,37.9,36,3819,10,58,0,0,0,0,31,98.79,-6303,0,1,3,16,89,0
2018/05/31 14:27:45,307,0,164,326716,37.2,38,36.1,3819,10,58,0,0,0,0,31,98.79,-6356,0,1,3,16,89,0
2018/05/31 14:27:51,306,0,165,327986,37.2,38,36.1,3819,10,58,0,0,0,0,31,98.79,-6409,0,1,4,18,89,0
2018/05/31 14:27:57,305,0,166,329232,37.3,38,36.2,3819,10,58,0,0,0,0,31,98.79,-6460,0,1,4,20,88,0
2018/05/31 14:28:03,305,0,166,330482,37.3,38.1,36.2,3819,10,58,0,0,0,0,31,98.79,-6511,0,1,3,17,88,0
2018/05/31 14:28:10,305,0,167,331735,37.3,38.1,36.2,3819,10,58,0,0,0,0,31,98.79,-6563,0,1,3,16,88,0
2018/05/31 14:28:16,305,0,168,333008,37.3,38.1,36.2,3819,10,58,0,0,0,0,31,98.79,-6615,0,1,3,16,88,0
2018/05/31 14:28:23,305,0,168,334342,37.4,38.1,36.4,3819,10,58,0,0,0,0,31,98.79,-6670,0,1,3,17,88,0
2018/05/31 14:28:29,305,0,169,335636,37.4,38.2,36.4,3819,10,58,0,0,0,0,31,98.79,-6723,0,1,3,16,88,0
2018/05/31 14:28:36,305,0,170,336970,37.6,38.2,36.5,3819,10,58,0,0,0,0,31,98.79,-6777,0,1,3,16,87,0
2018/05/31 14:28:43,306,0,170,338304,37.6,38.2,36.5,3819,10,58,0,0,0,0,31,98.79,-6832,0,1,3,16,87,0
2018/05/31 14:28:49,306,0,171,339640,37.6,38.4,36.5,3819,10,58,0,0,0,0,31,98.79,-6887,0,1,3,16,87,0
2018/05/31 14:28:55,306,0,172,340935,37.6,38.4,36.5,3819,10,58,0,0,0,0,31,98.79,-6940,0,1,3,16,87,0
2018/05/31 14:29:01,306,0,172,342191,37.7,38.4,36.6,3819,10,58,0,0,0,0,31,98.79,-6992,0,1,3,15,87,0
2018/05/31 14:29:08,306,0,173,343468,37.7,38.5,36.6,3819,10,58,0,0,0,0,31,98.79,-7044,0,1,3,14,87,0
2018/05/31 14:29:14,306,0,173,344767,37.8,38.5,36.6,3819,10,58,0,0,0,0,31,98.79,-7098,0,1,3,14,87,0
2018/05/31 14:29:21,306,0,174,346046,37.8,38.5,36.6,3819,10,58,0,0,0,0,31,98.79,-7150,0,1,3,14,87,0
2018/05/31 14:29:27,307,0,175,347346,37.8,38.6,36.8,3819,10,58,0,0,0,0,31,98.79,-7203,0,1,3,13,86,0
2018/05/31 14:29:33,308,0,175,348627,37.8,38.5,36.8,3819,10,58,0,0,0,0,31,98.79,-7256,0,1,3,13,86,0
2018/05/31 14:29:40,308,0,176,349907,37.9,38.6,36.8,3819,10,58,0,0,0,0,31,98.79,-7309,0,1,3,13,86,0
2018/05/31 14:29:46,308,0,177,351208,37.8,38.6,36.8,3819,10,58,0,0,0,0,31,98.79,-7362,0,1,3,13,86,0
2018/05/31 14:29:52,308,0,177,352491,37.9,38.8,36.8,3819,10,58,0,0,0,0,31,98.79,-7415,0,1,3,12,86,0
2018/05/31 14:29:59,309,0,178,353773,37.9,38.8,36.9,3819,10,58,0,0,0,0,31,98.79,-7467,0,1,2,13,86,0
2018/05/31 14:30:05,309,0,179,355076,37.9,38.8,36.9,3819,10,58,0,0,0,0,31,98.79,-7521,0,1,2,12,86,0
2018/05/31 14:30:11,309,0,179,356359,38,38.8,37,3819,10,58,0,0,0,0,31,98.79,-7574,0,1,2,12,86,0
2018/05/31 14:30:18,309,0,180,357642,38,38.8,37,3819,10,58,0,0,0,0,31,98.79,-7626,0,1,2,11,86,0
2018/05/31 14:30:24,309,0,181,358926,37.9,38.9,37,3819,10,58,0,0,0,0,31,98.79,-7679,0,1,2,12,85,0
2018/05/31 14:30:30,308,0,181,360210,38,38.9,37.1,3819,10,58,0,0,0,0,31,98.79,-7732,0,1,2,11,85,0
2018/05/31 14:30:36,308,0,182,361494,38.1,38.9,37,3819,10,58,0,0,0,0,31,98.79,-7784,0,1,2,12,85,0
2018/05/31 14:30:43,308,0,183,362757,38.1,39,37.1,3819,10,58,0,0,0,0,31,98.79,-7836,0,1,2,11,85,0
2018/05/31 14:30:49,307,0,183,364021,38.1,39,37.1,3819,10,58,0,0,0,0,31,98.79,-7888,0,1,2,11,85,0
2018/05/31 14:30:55,307,0,184,365304,38.1,39,37.1,3819,10,58,0,0,0,0,31.5,98.79,-7941,0,1,2,12,85,0
2018/05/31 14:31:02,307,0,184,366583,38.1,39,37.1,3819,10,58,0,0,0,0,31,98.79,-7993,0,1,2,11,85,0
2018/05/31 14:31:08,306,0,185,367841,38.2,39.1,37.2,3819,10,58,0,0,0,0,31,98.79,-8045,0,1,2,11,85,0
2018/05/31 14:31:14,305,0,186,369095,38.2,39.1,37.2,3819,10,58,0,0,0,0,31,98.79,-8096,0,1,2,11,85,0
2018/05/31 14:31:20,305,0,186,370348,38.2,39,37.1,3819,10,58,0,0,0,0,31,98.79,-8148,0,1,2,12,85,0
2018/05/31 14:31:27,305,0,187,371621,38.2,39.1,37.2,3819,10,58,0,0,0,0,31,98.79,-8200,0,1,2,11,84,0
2018/05/31 14:31:33,304,0,188,372894,38.4,39.1,37.3,3819,10,58,0,0,0,0,31,98.79,-8252,0,1,2,11,84,0
2018/05/31 14:31:39,304,0,188,374147,38.4,39.2,37.3,3819,10,58,0,0,0,0,31,98.79,-8304,0,1,2,11,84,0
2018/05/31 14:31:46,304,0,189,375461,38.4,39.2,37.3,3819,10,58,0,0,0,0,31.5,98.79,-8358,0,1,2,11,84,0
2018/05/31 14:31:52,304,0,190,376735,38.5,39.2,37.4,3819,10,58,0,0,0,0,31.5,98.79,-8410,0,1,2,11,84,0
2018/05/31 14:31:58,304,0,190,377988,38.4,39.2,37.3,3819,10,58,0,0,0,0,31.5,98.79,-8461,0,1,2,11,84,0
2018/05/31 14:32:05,304,0,191,379262,38.5,39.4,37.4,3819,10,58,0,0,0,0,31.5,98.79,-8514,0,1,2,10,84,0
2018/05/31 14:32:11,304,0,192,380555,38.5,39.4,37.4,3819,10,58,0,0,0,0,31.5,98.79,-8567,0,1,2,10,84,0
2018/05/31 14:32:17,305,0,192,381810,38.5,39.4,37.4,3819,10,58,0,0,0,0,31.5,98.79,-8618,0,1,2,11,84,0
2018/05/31 14:32:23,305,0,193,383065,38.5,39.4,37.4,3819,10,58,0,0,0,0,31.5,98.79,-8670,0,1,2,11,84,0
2018/05/31 14:32:30,305,0,193,384321,38.5,39.4,37.4,3819,10,58,0,0,0,0,31.5,98.79,-8722,0,1,2,9,84,0
2018/05/31 14:32:36,306,0,194,385599,38.6,39.5,37.6,3819,10,58,0,0,0,0,31.5,98.79,-8774,0,1,2,9,84,0
2018/05/31 14:32:43,306,0,195,386917,38.6,39.5,37.6,3819,10,58,0,0,0,0,31.5,98.79,-8828,0,1,2,9,84,0
2018/05/31 14:32:49,306,0,195,388196,38.8,39.5,37.6,3819,10,58,0,0,0,0,31.5,98.79,-8881,0,1,2,9,83,0
2018/05/31 14:32:55,307,0,196,389495,38.8,39.6,37.7,3819,10,58,0,0,0,0,31.5,98.79,-8934,0,1,2,9,83,0
2018/05/31 14:33:02,307,0,197,390774,38.8,39.6,37.7,3819,10,58,0,0,0,0,31.5,98.79,-8986,0,1,2,9,83,0
2018/05/31 14:33:08,306,0,197,392054,38.8,39.6,37.7,3819,10,58,0,0,0,0,31.5,98.79,-9039,0,1,2,9,83,0
2018/05/31 14:33:15,306,0,198,393394,38.9,39.8,37.7,3819,10,58,0,0,0,0,31.5,98.79,-9094,0,1,2,8,83,0
2018/05/31 14:33:21,306,0,199,394754,38.8,39.8,37.7,3819,10,58,0,0,0,0,31.5,98.79,-9150,0,1,2,8,83,0
2018/05/31 14:33:28,306,0,199,396053,38.9,39.8,37.8,3819,10,58,0,0,0,0,31.5,98.79,-9203,0,1,2,8,83,0
2018/05/31 14:33:35,306,0,200,397433,38.9,39.8,37.8,3819,10,58,0,0,0,0,31.5,98.79,-9260,0,1,2,9,83,0
2018/05/31 14:33:42,306,0,201,398834,39,39.9,37.9,3819,10,58,0,0,0,0,31.5,98.79,-9317,0,1,2,8,83,0
2018/05/31 14:33:48,306,0,201,400174,39,39.9,37.9,3819,10,58,0,0,0,0,31.5,98.79,-9372,0,1,2,9,83,0
2018/05/31 14:33:55,306,0,202,401534,39,39.9,37.9,3819,10,58,0,0,0,0,31.5,98.79,-9428,0,1,2,9,83,0
2018/05/31 14:34:01,306,0,203,402873,39,39.9,37.9,3819,10,58,0,0,0,0,31.5,98.79,-9483,0,1,2,9,83,0
2018/05/31 14:34:08,306,0,203,404212,39,40,37.9,3819,10,58,0,0,0,0,31.5,98.79,-9538,0,1,2,9,83,0
2018/05/31 14:34:15,306,0,204,405572,39,40,38,3819,10,58,0,0,0,0,31.5,98.79,-9594,0,1,2,9,83,0
2018/05/31 14:34:21,306,0,205,406871,39.1,40,38,3819,10,58,0,0,0,0,31.5,98.79,-9647,0,1,2,8,83,0
2018/05/31 14:34:28,306,0,205,408190,39.1,40,38,3819,10,58,0,0,0,0,31.5,98.79,-9701,0,1,2,9,82,0
2018/05/31 14:34:34,307,0,206,409490,39.1,40.1,38,3819,10,58,0,0,0,0,31.5,98.79,-9755,0,1,2,8,82,0
2018/05/31 14:34:40,307,0,207,410768,39.2,40.1,38,3819,10,58,0,0,0,0,31.5,98.79,-9807,0,1,2,9,82,0
2018/05/31 14:34:47,307,0,207,412046,39.2,40.1,38.1,3819,10,58,0,0,0,0,31.5,98.79,-9860,0,1,2,9,82,0
2018/05/31 14:34:54,307,0,208,413385,39.2,40.1,38.1,3819,10,58,0,0,0,0,31.5,98.79,-9915,0,1,2,9,82,0
2018/05/31 14:35:00,307,0,209,414724,39.2,40.2,38.1,3819,10,58,0,0,0,0,31.5,98.79,-9970,0,1,2,9,82,0
2018/05/31 14:35:06,307,0,209,416022,39.4,40.2,38.2,3819,10,58,0,0,0,0,31.5,98.79,-10023,0,1,2,9,82,0
2018/05/31 14:35:13,307,0,210,417319,39.4,40.2,38.2,3819,10,58,0,0,0,0,31.5,98.79,-10076,0,1,2,9,82,0
2018/05/31 14:35:19,307,0,211,418618,39.4,40.4,38.2,3819,10,58,0,0,0,0,31.5,98.79,-10130,0,1,2,9,82,0
2018/05/31 14:35:25,307,0,211,419915,39.4,40.4,38.2,3819,10,58,0,0,0,0,31.5,98.79,-10183,0,1,2,9,82,0
2018/05/31 14:35:32,307,0,212,421171,39.5,40.4,38.2,3819,10,58,0,0,0,0,31.5,98.79,-10234,0,1,2,10,82,0
2018/05/31 14:35:38,307,0,213,422448,39.5,40.5,38.4,3819,10,58,0,0,0,0,31.5,98.79,-10287,0,1,2,9,82,0
2018/05/31 14:35:44,307,0,213,423704,39.5,40.5,38.4,3819,10,58,0,0,0,0,31.5,98.79,-10338,0,1,2,10,82,0
2018/05/31 14:35:51,307,0,214,424996,39.5,40.5,38.4,3819,10,58,0,0,0,0,31.5,98.79,-10391,0,1,2,10,82,0
2018/05/31 14:35:58,307,0,215,426325,39.6,40.5,38.4,3819,10,58,0,0,0,0,31.5,98.79,-10446,0,1,2,10,82,0
2018/05/31 14:36:04,307,0,215,427773,39.6,40.5,38.5,3819,10,58,0,0,0,0,31.5,98.79,-10505,0,1,2,10,82,0
2018/05/31 14:36:11,307,0,216,429055,39.6,40.6,38.5,3819,10,58,0,0,0,0,31.5,98.79,-10558,0,1,2,10,82,0
2018/05/31 14:36:17,307,0,217,430333,39.8,40.6,38.5,3819,10,58,0,0,0,0,31.5,98.79,-10611,0,1,2,10,82,0
2018/05/31 14:36:24,306,0,217,431591,39.8,40.6,38.5,3819,10,58,0,0,0,0,31.5,98.79,-10662,0,1,2,10,82,0
2018/05/31 14:36:30,306,0,218,432870,39.8,40.8,38.5,3819,10,58,0,0,0,0,31.5,98.79,-10715,0,1,2,10,82,0
2018/05/31 14:36:37,307,0,219,434108,39.8,40.8,38.5,3819,10,58,0,0,0,0,31.5,98.79,-10766,0,1,2,10,81,0
2018/05/31 14:36:43,307,0,219,435426,39.8,40.8,38.6,3819,10,58,0,0,0,0,31.5,98.79,-10820,0,1,2,10,81,0
2018/05/31 14:36:49,307,0,220,436705,39.9,40.8,38.6,3819,10,58,0,0,0,0,31.5,98.79,-10872,0,1,2,10,81,0
2018/05/31 14:36:56,307,0,221,437983,39.9,40.8,38.6,3819,10,58,0,0,0,0,31.5,98.79,-10925,0,1,2,10,81,0
2018/05/31 14:37:02,307,0,221,439261,39.9,40.9,38.6,3819,10,58,0,0,0,0,31.5,98.79,-10977,0,1,2,10,81,0
2018/05/31 14:37:09,307,0,222,440519,39.9,40.9,38.8,3819,10,58,0,0,0,0,31.5,98.79,-11029,0,1,2,10,81,0
2018/05/31 14:37:15,307,0,222,441798,40,40.9,38.9,3819,10,58,0,0,0,0,31.5,98.79,-11081,0,1,2,9,81,0
2018/05/31 14:37:21,307,0,223,443096,40.1,41,38.8,3819,10,58,0,0,0,0,31.5,98.79,-11135,0,1,2,10,81,0
2018/05/31 14:37:28,307,0,224,444393,40,41,38.9,3819,10,58,0,0,0,0,31.5,98.79,-11188,0,1,2,10,81,0
2018/05/31 14:37:35,307,0,224,445672,40.1,41,38.9,3819,10,58,0,0,0,0,31.5,98.79,-11240,0,1,2,10,81,0
2018/05/31 14:37:41,307,0,225,446971,40.1,41.1,38.9,3819,10,58,0,0,0,0,31.5,98.79,-11294,0,1,2,10,81,0
2018/05/31 14:37:48,307,0,226,448309,40.1,41.1,38.9,3819,10,58,0,0,0,0,31.5,98.79,-11349,0,1,2,10,81,0
2018/05/31 14:37:54,307,0,226,449628,40.1,41.1,39,3819,10,58,0,0,0,0,32,98.79,-11403,0,1,2,10,81,0
2018/05/31 14:38:01,307,0,227,450926,40.1,41.1,39,3819,10,58,0,0,0,0,32,98.79,-11456,0,1,2,10,81,0
2018/05/31 14:38:08,307,0,228,452244,40.2,41.2,39,3819,10,58,0,0,0,0,32,98.79,-11510,0,1,2,9,81,0
2018/05/31 14:38:14,307,0,228,453583,40.4,41.2,39.1,3819,10,58,0,0,0,0,32,98.79,-11565,0,1,2,10,81,0
2018/05/31 14:38:21,308,0,229,454922,40.4,41.2,39.1,3819,10,58,0,0,0,0,32,98.79,-11620,0,1,2,10,81,0
2018/05/31 14:38:27,308,0,230,456220,40.4,41.2,39.1,3819,10,58,0,0,0,0,32,98.79,-11673,0,1,2,10,81,0
2018/05/31 14:38:34,308,0,230,457500,40.4,41.4,39.1,3819,10,58,0,0,0,0,32,98.79,-11726,0,1,2,9,81,0
2018/05/31 14:38:41,308,0,231,458839,40.4,41.4,39.1,3819,10,58,0,0,0,0,32,98.79,-11781,0,1,2,9,81,0
2018/05/31 14:38:47,309,0,232,460178,40.5,41.4,39.2,3819,10,58,0,0,0,0,32,98.79,-11836,0,1,2,10,81,0
2018/05/31 14:38:54,308,0,232,461496,40.5,41.5,39.2,3819,10,58,0,0,0,0,32,98.79,-11890,0,1,2,9,81,0
2018/05/31 14:39:01,308,0,233,462835,40.5,41.5,39.2,3819,10,58,0,0,0,0,32,98.79,-11945,0,1,2,9,81,0
2018/05/31 14:39:07,308,0,234,464154,40.5,41.5,39.2,3819,10,58,0,0,0,0,32,98.79,-11999,0,1,2,10,81,0
2018/05/31 14:39:14,308,0,234,465432,40.6,41.5,39.2,3819,10,58,0,0,0,0,32.5,98.79,-12052,0,1,2,10,81,0
2018/05/31 14:39:20,308,0,235,466731,40.6,41.6,39.4,3819,10,58,0,0,0,0,32.5,98.79,-12105,0,1,2,9,81,0
2018/05/31 14:39:27,307,0,236,468009,40.6,41.6,39.4,3819,10,58,0,0,0,0,32.5,98.79,-12157,0,1,2,10,81,0
2018/05/31 14:39:33,307,0,236,469328,40.8,41.6,39.4,3819,10,58,0,0,0,0,32.5,98.79,-12212,0,1,2,10,81,0
2018/05/31 14:39:40,307,0,237,470606,40.8,41.8,39.4,3819,10,58,0,0,0,0,32.5,98.79,-12264,0,1,2,10,81,0
2018/05/31 14:39:46,307,0,238,471924,40.8,41.8,39.5,3819,10,58,0,0,0,0,32.5,98.79,-12318,0,1,2,10,81,0
2018/05/31 14:39:53,307,0,238,473223,40.8,41.8,39.5,3819,10,58,0,0,0,0,32.5,98.79,-12371,0,1,2,10,81,0
2018/05/31 14:39:59,307,0,239,474501,40.8,41.8,39.6,3819,10,58,0,0,0,0,32.5,98.79,-12424,0,1,2,10,81,0
2018/05/31 14:40:06,307,0,240,475780,40.9,41.9,39.6,3819,10,58,0,0,0,0,32.5,98.79,-12476,0,1,2,10,81,0
2018/05/31 14:40:12,307,0,240,477138,40.9,41.9,39.6,3819,10,58,0,0,0,0,32.5,98.79,-12532,0,1,2,10,81,0
2018/05/31 14:40:19,307,0,241,478436,40.9,41.9,39.6,3819,10,58,0,0,0,0,32.5,98.79,-12585,0,1,2,10,80,0
2018/05/31 14:40:25,308,0,242,479734,40.9,41.9,39.6,3819,10,58,0,0,0,0,32.5,98.79,-12639,0,1,2,9,80,0
2018/05/31 14:40:32,308,0,242,480973,41,41.9,39.6,3819,10,58,0,0,0,0,32.5,98.79,-12690,0,1,2,10,80,0
2018/05/31 14:40:38,308,0,243,482231,41,42,39.8,3819,10,58,0,0,0,0,32.5,98.79,-12741,0,1,2,9,80,0
2018/05/31 14:40:44,308,0,243,483510,41,42,39.8,3819,10,58,0,0,0,0,32.5,98.79,-12794,0,1,2,9,80,0
2018/05/31 14:40:51,309,0,244,484769,41.1,42,39.8,3819,10,58,0,0,0,0,32.5,98.79,-12845,0,1,2,9,80,0
2018/05/31 14:40:57,309,0,245,486048,41,42,39.8,3819,10,58,0,0,0,0,32.5,98.79,-12898,0,1,2,9,80,0
2018/05/31 14:41:04,309,0,245,487347,41.1,42.1,39.9,3819,10,58,0,0,0,0,32,98.79,-12951,0,1,2,9,80,0
2018/05/31 14:41:10,309,0,246,488645,41.1,42.1,39.9,3819,10,58,0,0,0,0,32.5,98.79,-13005,0,1,2,9,80,0
2018/05/31 14:41:17,309,0,247,489904,41.2,42.1,39.9,3819,10,58,0,0,0,0,32.5,98.79,-13056,0,1,2,10,80,0
2018/05/31 14:41:23,309,0,247,491183,41.2,42.3,39.9,3819,10,58,0,0,0,0,32.5,98.79,-13109,0,1,2,10,80,0
2018/05/31 14:41:29,309,0,248,492481,41.2,42.3,40,3819,10,58,0,0,0,0,32.5,98.79,-13162,0,1,2,10,80,0
2018/05/31 14:41:36,309,0,249,493760,41.2,42.4,40,3819,10,58,0,0,0,0,32.5,98.79,-13215,0,1,2,9,80,0
2018/05/31 14:41:43,309,0,249,495060,41.4,42.4,40.1,3819,10,58,0,0,0,0,32.5,98.79,-13268,0,1,2,10,80,0
2018/05/31 14:41:49,308,0,250,496379,41.4,42.4,40,3819,10,58,0,0,0,0,32.5,98.79,-13322,0,1,2,9,80,0
2018/05/31 14:41:56,308,0,251,497698,41.4,42.4,40.1,3819,10,58,0,0,0,0,32.5,98.79,-13376,0,1,2,10,80,0
2018/05/31 14:42:02,308,0,251,499036,41.4,42.4,40.1,3819,10,58,0,0,0,0,32.5,98.79,-13431,0,1,2,10,80,0
2018/05/31 14:42:09,308,0,252,500356,41.4,42.6,40.1,3819,10,58,0,0,0,0,32.5,98.79,-13485,0,1,2,10,80,0
2018/05/31 14:42:16,308,0,253,501675,41.5,42.6,40.1,3819,10,58,0,0,0,0,32.5,98.79,-13540,0,1,2,10,80,0
2018/05/31 14:42:22,308,0,253,502974,41.5,42.6,40.2,3819,10,58,0,0,0,0,32.5,98.79,-13593,0,1,2,10,80,0
2018/05/31 14:42:29,308,0,254,504273,41.5,42.6,40.2,3819,10,58,0,0,0,0,32.5,98.79,-13646,0,1,2,10,80,0
2018/05/31 14:42:35,307,0,255,505552,41.5,42.7,40.2,3819,10,58,0,0,0,0,32,98.79,-13699,0,1,2,10,80,0
2018/05/31 14:42:41,307,0,255,506851,41.6,42.7,40.4,3819,10,58,0,0,0,0,32,98.79,-13752,0,1,2,9,80,0
2018/05/31 14:42:48,307,0,256,508089,41.6,42.7,40.4,3819,10,58,0,0,0,0,32,98.79,-13803,0,1,2,10,80,0
2018/05/31 14:42:54,306,0,257,509349,41.8,42.9,40.4,3819,10,58,0,0,0,0,32,98.79,-13855,0,1,2,10,80,0
2018/05/31 14:43:01,306,0,257,510607,41.8,42.9,40.5,3819,10,58,0,0,0,0,32,98.79,-13906,0,1,2,9,80,0
2018/05/31 14:43:07,307,0,258,511904,41.8,42.9,40.4,3819,10,58,0,0,0,0,32,98.79,-13959,0,1,2,10,80,0
2018/05/31 14:43:13,307,0,258,513198,41.8,42.9,40.4,3819,10,58,0,0,0,0,32,98.79,-14013,0,1,2,10,80,0
2018/05/31 14:43:20,307,0,259,514450,41.9,43,40.5,3819,10,58,0,0,0,0,32,98.79,-14064,0,1,2,10,80,0
2018/05/31 14:43:26,307,0,260,515739,41.9,43,40.5,3819,10,58,0,0,0,0,32,98.79,-14117,0,1,2,10,80,0
2018/05/31 14:43:33,308,0,260,517027,41.9,43,40.5,3819,10,58,0,0,0,0,32,98.79,-14170,0,1,2,10,80,0
2018/05/31 14:43:39,308,0,261,518274,41.9,43,40.5,3819,10,58,0,0,0,0,32,98.79,-14221,0,1,2,10,80,0
2018/05/31 14:43:46,308,0,262,519540,42,43.1,40.6,3819,10,58,0,0,0,0,32,98.79,-14273,0,1,2,10,80,0
2018/05/31 14:43:52,308,0,262,520846,42,43.1,40.6,3819,10,58,0,0,0,0,32,98.79,-14327,0,1,2,9,80,0
2018/05/31 14:43:59,308,0,263,522094,42,43.1,40.6,3819,10,58,0,0,0,0,32,98.79,-14378,0,1,2,10,80,0
2018/05/31 14:44:05,308,0,264,523360,42.1,43.3,40.8,3819,10,58,0,0,0,0,32,98.79,-14430,0,1,2,10,80,0
2018/05/31 14:44:11,308,0,264,524627,42.1,43.1,40.6,3819,10,58,0,0,0,0,32,98.79,-14482,0,1,2,10,80,0
2018/05/31 14:44:18,309,0,265,525894,42.1,43.3,40.8,3819,10,58,0,0,0,0,32,98.79,-14534,0,1,2,10,80,0
2018/05/31 14:44:24,309,0,266,527161,42.1,43.3,40.8,3819,10,58,0,0,0,0,32,98.79,-14586,0,1,2,9,80,0
2018/05/31 14:44:31,309,0,266,528428,42.1,43.3,40.8,3819,10,58,0,0,0,0,32,98.79,-14638,0,1,2,10,80,0
2018/05/31 14:44:37,309,0,267,529696,42.3,43.3,40.8,3819,10,58,0,0,0,0,32,98.79,-14690,0,1,2,9,80,0
2018/05/31 14:44:43,309,0,267,530923,42.3,43.4,40.9,3819,10,58,0,0,0,0,32,98.79,-14740,0,1,2,9,80,0
2018/05/31 14:44:50,310,0,268,532190,42.3,43.4,40.9,3819,10,58,0,0,0,0,32,98.79,-14792,0,1,2,10,80,0
2018/05/31 14:44:56,310,0,269,533459,42.4,43.4,40.9,3819,10,58,0,0,0,0,32,98.79,-14844,0,1,2,9,80,0
2018/05/31 14:45:02,310,0,269,534707,42.4,43.4,40.9,3819,10,58,0,0,0,0,32,98.79,-14896,0,1,2,9,80,0
2018/05/31 14:45:09,310,0,270,535973,42.4,43.6,41,3819,10,58,0,0,0,0,32,98.79,-14948,0,1,2,9,80,0
2018/05/31 14:45:15,310,0,271,537201,42.4,43.6,41,3819,10,58,0,0,0,0,32,98.79,-14998,0,1,2,10,80,0
2018/05/31 14:45:22,310,0,271,538529,42.4,43.6,41,3819,10,58,0,0,0,0,32,98.79,-15053,0,1,2,9,80,0
2018/05/31 14:45:28,310,0,272,539816,42.6,43.7,41.1,3819,10,58,0,0,0,0,32,98.79,-15105,0,1,2,9,80,0
2018/05/31 14:45:35,310,0,273,541084,42.6,43.7,41.1,3819,10,58,0,0,0,0,32,98.79,-15157,0,1,2,9,80,0
2018/05/31 14:45:41,310,0,273,542351,42.7,43.7,41.1,3819,10,58,0,0,0,0,32,98.79,-15210,0,1,2,9,80,0
2018/05/31 14:45:48,310,0,274,543638,42.7,43.7,41.1,3819,10,58,0,0,0,0,32,98.79,-15262,0,1,2,9,80,0
2018/05/31 14:45:54,310,0,274,544925,42.7,43.9,41.2,3819,10,58,0,0,0,0,32,98.79,-15315,0,1,2,9,80,0
2018/05/31 14:46:01,310,0,275,546231,42.7,43.9,41.2,3819,10,58,0,0,0,0,32,98.79,-15369,0,1,2,9,80,0
2018/05/31 14:46:07,310,0,276,547536,42.7,43.9,41.2,3819,10,58,0,0,0,0,32,98.79,-15422,0,1,2,10,80,0
2018/05/31 14:46:14,310,0,276,548803,42.9,44,41.2,3819,10,58,0,0,0,0,32,98.79,-15474,0,1,2,10,80,0
2018/05/31 14:46:20,310,0,277,550070,42.9,44,41.2,3819,10,58,0,0,0,0,32,98.79,-15526,0,1,2,10,80,0
2018/05/31 14:46:27,310,0,278,551335,42.9,44,41.4,3819,10,58,0,0,0,0,32,98.79,-15578,0,1,2,9,80,0
2018/05/31 14:46:33,310,0,278,552601,42.9,44,41.4,3819,10,58,0,0,0,0,32,98.79,-15630,0,1,2,10,80,0
2018/05/31 14:46:39,310,0,279,553887,42.9,44,41.4,3819,10,58,0,0,0,0,32,98.79,-15683,0,1,2,10,80,0
2018/05/31 14:46:46,310,0,280,555132,43,44.1,41.4,3819,10,58,0,0,0,0,32,98.79,-15734,0,1,2,10,80,0
2018/05/31 14:46:52,310,0,280,556379,43,44.1,41.4,3819,10,58,0,0,0,0,32,98.79,-15785,0,1,2,10,80,0
2018/05/31 14:46:58,309,0,281,557625,43.1,44.1,41.5,3819,10,58,0,0,0,0,32,98.79,-15837,0,1,2,9,80,0
2018/05/31 14:47:05,309,0,282,558851,43.1,44.3,41.5,3819,10,58,0,0,0,0,32,98.79,-15887,0,1,2,10,80,0
2018/05/31 14:47:11,309,0,282,560119,43.1,44.3,41.6,3819,10,58,0,0,0,0,32,98.79,-15939,0,1,2,10,80,0
2018/05/31 14:47:18,309,0,283,561406,43.1,44.3,41.6,3819,10,58,0,0,0,0,32.5,98.79,-15992,0,1,2,10,80,0
2018/05/31 14:47:24,309,0,283,562672,43.3,44.3,41.6,3819,10,58,0,0,0,0,32.5,98.79,-16044,0,1,2,10,80,0
2018/05/31 14:47:31,308,0,284,563921,43.3,44.3,41.6,3819,10,58,0,0,0,0,32.5,98.79,-16095,0,1,2,10,80,0
2018/05/31 14:47:37,308,0,285,565228,43.3,44.3,41.6,3819,10,58,0,0,0,0,32.5,98.79,-16149,0,1,2,9,79,0
2018/05/31 14:47:43,308,0,285,566455,43.3,44.4,41.6,3819,10,58,0,0,0,0,32.5,98.79,-16199,0,1,2,9,79,0
2018/05/31 14:47:49,308,0,286,567704,43.3,44.4,41.6,3819,10,58,0,0,0,0,32.5,98.79,-16250,0,1,2,9,79,0
2018/05/31 14:47:56,308,0,287,568951,43.4,44.4,41.8,3819,10,58,0,0,0,0,32.5,98.79,-16302,0,1,2,10,79,0
2018/05/31 14:48:02,308,0,287,570199,43.4,44.6,41.8,3819,10,58,0,0,0,0,32.5,98.79,-16353,0,1,2,9,79,0
2018/05/31 14:48:08,308,0,288,571427,43.4,44.6,41.8,3819,10,58,0,0,0,0,32.5,98.79,-16403,0,1,2,9,79,0
2018/05/31 14:48:15,307,0,289,572693,43.4,44.6,41.9,3819,10,58,0,0,0,0,32.5,98.79,-16455,0,1,2,10,79,0
2018/05/31 14:48:21,307,0,289,573938,43.6,44.6,41.9,3819,10,58,0,0,0,0,32.5,98.79,-16506,0,1,2,10,79,0
2018/05/31 14:48:27,307,0,290,575177,43.6,44.6,41.9,3819,10,58,0,0,0,0,32.5,98.79,-16557,0,1,2,9,79,0
2018/05/31 14:48:34,306,0,290,576412,43.6,44.7,41.9,3819,10,58,0,0,0,0,32.5,98.79,-16608,0,1,2,10,79,0
2018/05/31 14:48:40,306,0,291,577664,43.6,44.7,41.9,3819,10,58,0,0,0,0,32.5,98.79,-16659,0,1,2,9,79,0
2018/05/31 14:48:47,306,0,292,578952,43.7,44.7,42,3819,10,58,0,0,0,0,32.5,98.79,-16712,0,1,2,9,79,0
2018/05/31 14:48:53,306,0,292,580181,43.7,44.7,42,3819,10,58,0,0,0,0,32.5,98.79,-16763,0,1,2,9,79,0
2018/05/31 14:48:59,306,0,293,581411,43.9,44.9,42,3819,10,58,0,0,0,0,32.5,98.79,-16813,0,1,2,9,79,0
2018/05/31 14:49:06,306,0,294,582640,43.7,44.9,42,3819,10,58,0,0,0,0,32.5,98.79,-16864,0,1,2,9,79,0
2018/05/31 14:49:13,306,0,294,583908,43.7,44.9,42,3819,10,58,0,0,0,0,32.5,98.79,-16916,0,1,2,9,79,0
2018/05/31 14:49:19,306,0,295,585218,43.9,44.9,42.1,3819,10,58,0,0,0,0,32.5,98.79,-16969,0,1,2,8,79,0
2018/05/31 14:49:25,306,0,295,586447,43.9,44.9,42,3819,10,58,0,0,0,0,32.5,98.79,-17020,0,1,2,8,79,0
2018/05/31 14:49:32,306,0,296,587698,43.9,45,42.1,3819,10,58,0,0,0,0,32.5,98.79,-17071,0,1,2,9,79,0
2018/05/31 14:49:38,307,0,297,588946,43.9,45,42.1,3819,10,58,0,0,0,0,32.5,98.79,-17122,0,1,2,9,79,0
2018/05/31 14:49:45,307,0,297,590196,44,45,42.1,3819,10,58,0,0,0,0,32.5,98.79,-17174,0,1,2,9,79,0
2018/05/31 14:49:51,307,0,298,591465,44,45,42.3,3819,10,58,0,0,0,0,32.5,98.79,-17226,0,1,2,10,79,0
2018/05/31 14:49:57,307,0,299,592713,44,45.1,42.3,3819,10,58,0,0,0,0,32.5,98.79,-17277,0,1,2,9,79,0
2018/05/31 14:50:04,307,0,299,593923,44.1,45.1,42.4,3819,10,58,0,0,0,0,32.5,98.79,-17327,0,1,2,9,79,0
2018/05/31 14:50:10,306,0,300,595170,44,45.1,42.4,3819,10,58,0,0,0,0,32.5,98.79,-17378,0,1,2,10,79,0
2018/05/31 14:50:16,306,0,300,596379,44.1,45.1,42.4,3819,10,58,0,0,0,0,32.5,98.79,-17428,0,1,2,10,79,0
2018/05/31 14:50:23,306,0,301,597626,44.1,45.3,42.4,3819,10,58,0,0,0,0,32.5,98.79,-17479,0,1,2,10,79,0
2018/05/31 14:50:29,306,0,302,598854,44.3,45.3,42.4,3819,10,58,0,0,0,0,32.5,98.79,-17529,0,1,2,10,79,0
2018/05/31 14:50:35,306,0,302,600101,44.3,45.3,42.6,3819,10,58,0,0,0,0,33,98.79,-17580,0,1,2,10,79,0
2018/05/31 14:50:42,306,0,303,601350,44.3,45.3,42.4,3819,10,58,0,0,0,0,33,98.79,-17632,0,1,2,10,79,0
2018/05/31 14:50:48,306,0,304,602599,44.4,45.4,42.6,3819,10,58,0,0,0,0,33,98.79,-17683,0,1,2,10,79,0
2018/05/31 14:50:55,306,0,304,603826,44.4,45.4,42.6,3819,10,58,0,0,0,0,33,98.79,-17733,0,1,2,10,79,0
2018/05/31 14:51:01,306,0,305,605055,44.4,45.4,42.6,3819,10,58,0,0,0,0,33,98.79,-17784,0,1,2,10,79,0
2018/05/31 14:51:07,306,0,305,606282,44.4,45.4,42.6,3819,10,58,0,0,0,0,33,98.79,-17834,0,1,2,10,79,0